logo
Search for airport 
image banner adimage banner adimage banner ad
image banner ad

FAWARR - Warrenton

Located in , South Africa

ICAO - , IATA -

Data provided by Airmate  

General information

Coordinates: S28°7'16" E24°52'19"
Elevation is 3956 feet MSL.
 
View others Airports in Northern Cape

Operational data

Special qualification required
Current time UTC:
Current local time:
Weather at : FAKM - Kimberley ( 76 km )
METAR: FAKM 181000Z 34005KT CAVOK 24/12 Q1027
TAF: TAF FAKM 180900Z 1810/1818 01008KT CAVOK TX26/1813Z TN17/1818Z
View NOTAMs / SUP AIP / TFR affecting this airport [VIEW]
Communications frequencies: [VIEW]

Runways:

RWY identifierQFULength (ft)Width (ft)SurfaceLDA (ft)
05170°285466SAND
23350°285466SAND
12101°164066SAND
30281°164066SAND

Airport contact information

Address: South Africa

Satellite view of FAWARR